Date String (YYYY-MM-DD hh:mm:ss) UTC,Instrument flags,absolute air pressure of the measurement (hPa),sample flow rate (lpm),inlet stack bypass flow (lpm),air temperature of the measurement (°C),ambient temperature measured by the external sensor (°C),aerosol sample conditioner tube jacket temperature (°C),OPC LED temperature (°C),internal box temperature (°C),relative humidity of the measurement (%),span deviation,mass concentration of particles derived from Lorenz-Mie calculation of OPC scattering (μg/m³),mass concentration of particles derived from Lorenz-Mie calculation of OPC scattering (μg/m³),mass concentration of particles derived from Lorenz-Mie calculation of OPC scattering (μg/m³)
DateTimeUTC,F1_M11,P_M11,Q1_M11,Q2_M11,T1_M11,T2_M11,T3_M11,T4_M11,T5_M11,U1_M11,ZSPAN_M11,X0_M11,X2_M11,X1_M11
2024-06-07 21:00:00,SystemResetWarning,0827.1,4.99,000.00,028.8,028.2,000.0,037.0,030.7,019.0,0000.0,0008.82,0002.73,0001.51
2024-06-07 21:01:00,SystemResetWarning,0827.0,4.99,000.00,028.9,028.4,000.0,037.0,030.8,019.1,0000.0,0008.87,0002.82,0001.54
2024-06-07 21:02:00,SystemResetWarning,0827.0,5.01,000.00,029.0,028.6,000.0,037.0,030.9,020.2,0000.0,0008.63,0002.84,0001.55
2024-06-07 21:03:00,SystemResetWarning,0827.0,5.02,000.00,029.1,028.7,000.0,037.1,031.0,019.3,0000.0,0009.38,0002.84,0001.57
2024-06-07 21:04:00,SystemResetWarning,0826.9,4.99,000.00,029.1,028.2,000.0,037.2,030.7,018.5,0000.0,0009.21,0002.84,0001.58
2024-06-07 21:05:00,SystemResetWarning,0826.8,4.99,000.00,028.8,025.9,000.0,037.2,029.6,018.3,0000.0,0009.69,0002.85,0001.59
2024-06-07 21:06:00,SystemResetWarning,0826.8,5.02,000.00,028.5,025.5,000.0,037.2,029.3,018.6,0000.0,0010.01,0002.91,0001.64
2024-06-07 21:07:00,SystemResetWarning,0826.8,4.99,000.00,028.4,026.1,000.0,037.1,029.6,018.4,0000.0,0010.11,0002.89,0001.65
2024-06-07 21:08:00,SystemResetWarning,0826.8,5.00,000.00,028.5,026.6,000.0,037.0,029.9,018.3,0000.0,0010.10,0002.85,0001.66
2024-06-07 21:09:00,SystemResetWarning,0826.9,5.01,000.00,028.5,027.0,000.0,037.0,030.1,018.2,0000.0,0010.05,0002.82,0001.68
2024-06-07 21:10:00,SystemResetWarning,0826.8,5.00,000.00,028.6,027.4,000.0,037.0,030.3,018.3,0000.0,0009.76,0002.81,0001.69
2024-06-07 21:11:00,SystemResetWarning,0826.8,5.00,000.00,028.7,027.7,000.0,037.0,030.4,017.9,0000.0,0009.37,0002.89,0001.70
2024-06-07 21:12:00,SystemResetWarning,0826.8,5.00,000.00,028.7,028.0,000.0,037.0,030.6,018.0,0000.0,0009.68,0002.92,0001.70
2024-06-07 21:13:00,SystemResetWarning,0826.8,5.00,000.00,028.8,028.3,000.0,037.0,030.7,017.8,0000.0,0009.65,0002.89,0001.72
2024-06-07 21:14:00,SystemResetWarning,0826.8,5.00,000.00,028.9,028.5,000.0,037.0,030.8,017.8,0000.0,0008.51,0002.88,0001.72
2024-06-07 21:15:00,SystemResetWarning,0826.8,5.00,000.00,029.0,028.7,000.0,037.0,030.9,018.1,0000.0,0007.75,0002.88,0001.72
2024-06-07 21:16:00,SystemResetWarning,0826.8,4.99,000.00,029.1,028.5,000.0,037.1,030.8,018.6,0000.0,0007.11,0002.89,0001.73
2024-06-07 21:17:00,SystemResetWarning,0826.6,5.00,000.00,028.9,026.5,000.0,037.2,029.9,018.8,0000.0,0006.45,0002.89,0001.72
2024-06-07 21:18:00,SystemResetWarning,0826.6,5.02,000.00,028.5,025.3,000.0,037.2,029.3,018.1,0000.0,0006.39,0002.87,0001.73
2024-06-07 21:19:00,SystemResetWarning,0826.5,5.00,000.00,028.4,025.9,000.0,037.1,029.5,018.7,0000.0,0007.89,0002.88,0001.74
2024-06-07 21:20:00,SystemResetWarning,0826.5,4.99,000.00,028.4,026.4,000.0,037.0,029.8,018.4,0000.0,0007.87,0002.86,0001.73
2024-06-07 21:21:00,SystemResetWarning,0826.5,5.00,000.00,028.5,026.8,000.0,037.0,030.0,018.4,0000.0,0007.87,0002.85,0001.73
2024-06-07 21:22:00,SystemResetWarning,0826.6,5.01,000.00,028.5,027.3,000.0,036.9,030.2,018.7,0000.0,0007.87,0002.80,0001.73
2024-06-07 21:23:00,SystemResetWarning,0826.5,4.99,000.00,028.6,027.6,000.0,036.9,030.4,018.7,0000.0,0007.51,0002.72,0001.72
2024-06-07 21:24:00,SystemResetWarning,0826.5,4.99,000.00,028.7,027.9,000.0,036.9,030.5,018.9,0000.0,0007.63,0002.66,0001.70
2024-06-07 21:25:00,SystemResetWarning,0826.4,5.00,000.00,028.8,028.2,000.0,036.9,030.7,018.2,0000.0,0008.06,0002.69,0001.71
2024-06-07 21:26:00,SystemResetWarning,0826.4,5.00,000.00,028.9,028.4,000.0,037.0,030.8,018.0,0000.0,0008.09,0002.71,0001.72
2024-06-07 21:27:00,SystemResetWarning,0826.4,5.00,000.00,029.0,028.6,000.0,037.0,030.9,017.7,0000.0,0007.96,0002.66,0001.72
2024-06-07 21:28:00,SystemResetWarning,0826.3,5.00,000.00,029.0,028.7,000.0,037.1,031.0,017.6,0000.0,0007.91,0002.64,0001.73
2024-06-07 21:29:00,SystemResetWarning,0826.4,4.99,000.00,029.1,028.3,000.0,037.1,030.7,017.4,0000.0,0007.88,0002.67,0001.73
2024-06-07 21:30:00,SystemResetWarning,0826.2,5.01,000.00,028.8,026.2,000.0,037.2,029.7,017.9,0000.0,0006.38,0002.65,0001.71
2024-06-07 21:31:00,SystemResetWarning,0826.1,5.02,000.00,028.5,025.5,000.0,037.2,029.3,018.3,0000.0,0005.96,0002.64,0001.71
2024-06-07 21:32:00,SystemResetWarning,0826.1,4.99,000.00,028.4,026.1,000.0,037.1,029.6,018.1,0000.0,0006.02,0002.66,0001.72
2024-06-07 21:33:00,SystemResetWarning,0826.2,5.00,000.00,028.5,026.5,000.0,037.0,029.9,017.9,0000.0,0006.34,0002.68,0001.73
2024-06-07 21:34:00,SystemResetWarning,0826.2,5.00,000.00,028.5,027.0,000.0,037.0,030.1,018.2,0000.0,0006.24,0002.67,0001.72
2024-06-07 21:35:00,SystemResetWarning,0826.2,5.00,000.00,028.6,027.4,000.0,036.9,030.3,018.2,0000.0,0006.33,0002.68,0001.72
2024-06-07 21:36:00,SystemResetWarning,0826.2,5.00,000.00,028.7,027.7,000.0,036.9,030.4,018.5,0000.0,0005.76,0002.70,0001.73
2024-06-07 21:37:00,SystemResetWarning,0826.2,5.00,000.00,028.7,028.0,000.0,036.9,030.6,018.5,0000.0,0007.11,0002.67,0001.72
2024-06-07 21:38:00,SystemResetWarning,0826.1,5.00,000.00,028.8,028.3,000.0,037.0,030.7,018.8,0000.0,0007.39,0002.73,0001.71
2024-06-07 21:39:00,SystemResetWarning,0826.2,4.99,000.00,028.9,028.5,000.0,037.0,030.8,018.1,0000.0,0007.44,0002.73,0001.71
2024-06-07 21:40:00,SystemResetWarning,0826.2,4.99,000.00,029.0,028.7,000.0,037.0,030.9,018.0,0000.0,0007.37,0002.71,0001.71
2024-06-07 21:41:00,SystemResetWarning,0826.1,5.00,000.00,029.1,028.8,000.0,037.1,031.0,018.4,0000.0,0007.34,0002.72,0001.72
2024-06-07 21:42:00,SystemResetWarning,0826.1,5.00,000.00,029.1,028.0,000.0,037.2,030.6,018.0,0000.0,0007.46,0002.78,0001.74
2024-06-07 21:43:00,SystemResetWarning,0826.0,5.00,000.00,028.7,025.9,000.0,037.2,029.5,018.2,0000.0,0007.65,0002.75,0001.73
2024-06-07 21:44:00,SystemResetWarning,0826.0,5.01,000.00,028.5,025.7,000.0,037.2,029.4,018.1,0000.0,0007.80,0002.74,0001.72
2024-06-07 21:45:00,SystemResetWarning,0826.0,5.00,000.00,028.5,026.3,000.0,037.1,029.7,018.2,0000.0,0008.20,0002.78,0001.73
2024-06-07 21:46:00,SystemResetWarning,0826.0,4.99,000.00,028.5,026.7,000.0,037.0,030.0,018.4,0000.0,0008.25,0002.80,0001.75
2024-06-07 21:47:00,SystemResetWarning,0826.0,5.00,000.00,028.6,027.1,000.0,037.0,030.2,018.3,0000.0,0008.06,0002.79,0001.73
2024-06-07 21:48:00,SystemResetWarning,0826.0,5.00,000.00,028.7,027.5,000.0,037.0,030.3,018.2,0000.0,0007.33,0002.83,0001.75
2024-06-07 21:49:00,SystemResetWarning,0826.0,5.01,000.00,028.7,027.9,000.0,037.0,030.5,018.6,0000.0,0007.98,0002.81,0001.76
2024-06-07 21:50:00,SystemResetWarning,0825.9,4.99,000.00,028.8,028.1,000.0,037.0,030.7,018.7,0000.0,0008.56,0002.85,0001.78
2024-06-07 21:51:00,SystemResetWarning,0825.9,5.00,000.00,028.9,028.4,000.0,037.0,030.8,017.3,0000.0,0008.58,0002.87,0001.78
2024-06-07 21:52:00,SystemResetWarning,0825.9,5.00,000.00,029.0,028.6,000.0,037.0,030.9,017.6,0000.0,0009.03,0002.91,0001.78
2024-06-07 21:53:00,SystemResetWarning,0825.8,5.00,000.00,029.1,028.8,000.0,037.1,031.0,017.9,0000.0,0008.96,0002.88,0001.78
2024-06-07 21:54:00,SystemResetWarning,0825.9,4.99,000.00,029.2,028.5,000.0,037.1,030.8,018.3,0000.0,0008.81,0002.90,0001.80
2024-06-07 21:55:00,SystemResetWarning,0825.8,4.99,000.00,028.9,026.4,000.0,037.2,029.8,018.0,0000.0,0008.55,0002.93,0001.79
2024-06-07 21:56:00,SystemResetWarning,0825.8,5.02,000.00,028.6,025.5,000.0,037.2,029.4,018.4,0000.0,0008.14,0002.89,0001.79
2024-06-07 21:57:00,SystemResetWarning,0825.8,5.00,000.00,028.5,026.1,000.0,037.1,029.6,018.4,0000.0,0008.22,0002.96,0001.78
2024-06-07 21:58:00,SystemResetWarning,0825.8,5.01,000.00,028.5,026.6,000.0,037.0,029.9,018.4,0000.0,0008.64,0003.02,0001.79
2024-06-07 21:59:00,SystemResetWarning,0825.8,5.00,000.00,028.6,027.0,000.0,037.0,030.1,018.6,0000.0,0010.22,0003.01,0001.79
